カタログに戻る

FENGYUN 1C DEB

LostPO
NORAD 37076·DEBRIS·🇨🇳 China

打ち上げ May 10, 1999 から Taiyuan Satellite Launch Center

Loading…

次のパス (今後24時間)

TLE

古いSource: Space-Track

元期: Jan 1, 2024, 21:34 UTC

1 37076U 99025EFL 24001.89911464  .00005402  00000-0  26361-2 0  9998
2 37076  98.2989 246.0654 0171295 295.1315  63.2172 14.11055522778715

AllMySatでFENGYUN 1C DEBをリアルタイム追跡

Download on the App Store